Tracking 30923 objects as of 1-Jul-2025
HD Live streaming from Space Station
objects crossing your sky now

PSLV DEB

Track PSLV DEB now!
10-day predictions


NORAD ID: 27585
Int'l Code: 2001-049ND
Perigee: 584.7 km
Apogee: 657.4 km
Inclination: 98.3 °
Period: 97.0 minutes
Semi major axis: 6992 km
RCS: 0.0014 m2 (small)
Launch date: October 22, 2001
Source: India (IND)
Launch site: SRIHARIKOTA (SRI)

Note: This is SATELLITE DEBRIS
Your satellite tracking list
Your tracking list is empty




NASA's NSSDC Master Catalog

Two Line Element Set (TLE):
1 27585U 01049ND  25181.85774093  .00001599  00000-0  19079-3 0  9994
2 27585  98.3137 194.3477 0051946 349.1940  10.8153 14.84889861249842
Source of the keplerian elements: AFSPC